Regional Weather Roundup
Issued by NWS

Home | Current Version | Previous Version | Graphics & Text | Print | Product List | Glossary Off
Versions: 1 2 3 4 5 6 7 8 9 10 11 12 13 14 15 16 17 18 19 20 21 22 23 24 25 26 27 28 29 30 31 32 33 34 35 36 37 38 39 40 41 42 43 44 45 46 47 48 49 50

000
ASUS43 KTOP 060959
RWRKS

WEATHER ROUNDUP FOR KANSAS
NATIONAL WEATHER SERVICE GOODLAND KS
500 AM CDT MON JUL 06 2015

NOTE:  "FAIR" INDICATES FEW OR NO CLOUDS BELOW 12,000 FEET WITH NO
SIGNIFICANT WEATHER AND/OR OBSTRUCTIONS TO VISIBILITY.

KSZ001>006-013>018-027>032-041>047-061100-
NORTHWEST KANSAS

CITY           SKY/WX    TMP DP  RH WIND       PRES   REMARKS
GOODLAND       CLOUDY    67  65  93 N15       29.96R
HAYS           MOCLDY    79  63  57 S14       29.82F
HILL CITY      MOCLDY    80  65  59 CALM      29.84R
RUSSELL        CLOUDY    78  66  66 S17       29.80S
$$

KSZ061>065-074>080-084>089-061100-
SOUTHWEST KANSAS

CITY           SKY/WX    TMP DP  RH WIND       PRES   REMARKS
DODGE CITY     PTCLDY    74  63  68 S15       29.87F
ELKHART          N/A     72  61  68 W5          N/A
GARDEN CITY    PTCLDY    72  66  81 S13       29.85F
GREAT BEND     MOCLDY    77  64  65 S16G23    29.83S
LIBERAL        PTCLDY    72  63  73 S9        29.89F
$$

KSZ066>073-081>083-090>101-061100-
SOUTHEAST KANSAS

CITY           SKY/WX    TMP DP  RH WIND       PRES   REMARKS
CHANUTE        MOCLDY    74  71  91 S12       29.92F
COFFEYVILLE    MOCLDY    74  71  91 SE8       29.92F
HUTCHINSON     MOCLDY    78  66  66 S12       29.85F
MEDICINE LODGE   N/A     76  67  73 S9        29.85F
NEWTON         MOCLDY    77  64  65 S15G23    29.89S
PARSONS        MOCLDY    75  72  90 S7        29.94S
WICHITA INTL   MOCLDY    78  68  71 S13       29.86F
WICHITA JABRA  MOCLDY    77  68  73 S12G20    29.87S
WINFIELD       MOCLDY    78  69  73 S13       29.90S
$$

KSZ007>012-019>026-033>040-048>060-102>105-061100-
NORTHEAST KANSAS

CITY           SKY/WX    TMP DP  RH WIND       PRES   REMARKS
CONCORDIA      CLOUDY    79  68  69 S8        29.84R
EMPORIA        CLOUDY    75  70  84 S12       29.88F
LAWRENCE       CLOUDY    75  71  87 SE8       29.88F
MANHATTAN      CLOUDY    79  71  76 S8        29.84R
OLATHE IND     CLOUDY    73  69  87 S13       29.91F
OLATHE EXE     CLOUDY    72  68  87 S10       29.90F
SALINA         MOCLDY    80  67  64 S9        29.82S
TOPEKA BILLARD CLOUDY    76  71  85 SE5       29.86F
TOPEKA FORBES  CLOUDY    77  71  82 SE9       29.87F
$$



USA.gov is the U.S. government's official web portal to all federal, state and local government web resources and services.